CAPE
0 0 0 0 0 0 0 0 0 0 0 0 0 0 0 0 0 0 0 0 0 0 0 0 0 0 0 0 5 405 929 1938 2351 2197 2083 1878 1677 1548 1299 1075 1019 948 1142 1025
0 0 0 0 0 0 0 0 0 0 0 0 0 0 0 0 0 0 0 0 0 0 0 0 0 0 0 0 0 21 483 1319 2246 2222 2186 1988 1850 1698 1534 1204 1013 1086 1165 1243
0 0 0 0 0 0 0 0 0 0 0 0 0 0 0 0 0 0 0 0 0 0 0 0 0 0 0 0 0 0 111 482 1374 2159 2293 2187 2162 2321 2007 1654 1418 1446 1424 1118
0 0 0 0 0 0 0 0 0 0 0 0 0 0 0 0 0 0 0 0 0 0 0 0 0 0 0 0 0 0 0 167 732 1566 1883 2274 2270 2169 2165 2342 1977 1757 1687 1429
0 0 0 0 0 0 0 0 0 0 0 0 0 0 0 0 0 0 0 0 0 0 0 0 0 0 0 0 0 0 0 0 203 797 1782 2136 2505 2021 2298 2089 2178 2313 2420 1990
0 0 0 0 0 0 0 0 0 0 0 0 0 0 0 0 0 0 0 0 0 0 0 0 0 0 0 0 0 0 0 0 92 353 874 1839 2297 2496 2001 2170 2499 2630 2772 2685
0 0 0 0 0 0 0 0 0 0 0 0 0 0 0 0 0 0 0 0 0 0 0 0 0 0 0 0 0 0 0 0 5 121 380 923 1684 2607 2744 2453 2634 2442 2182 2097
0 0 0 0 0 0 0 0 0 0 0 0 0 0 0 0 0 0 0 0 0 0 0 0 0 0 0 0 0 0 0 0 0 1 165 449 906 1653 2371 2443 2319 2161 1832 1678
0 0 0 0 0 0 0 0 0 0 0 0 0 0 0 0 0 0 0 0 0 0 0 0 0 0 0 0 0 0 0 0 0 0 44 340 743 1353 1946 2131 1939 1589 1465 1238
0 0 0 0 0 0 0 0 1 0 0 2 4 4 8 1 1 3 0 0 0 0 0 0 0 0 0 0 0 0 0 0 51 32 90 257 647 995 1201 1126 1178 712 547 336
0 0 0 0 0 0 0 0 0 1 0 8 13 5 0 1 0 0 1 0 0 0 0 0 0 0 0 0 0 0 0 8 96 144 236 336 434 392 337 366 357 332 460 354
1 10 4 4 4 0 0 0 0 2 8 11 10 13 1 1 0 0 0 0 4 0 0 7 19 0 7 22 28 23 104 64 25 16 128 216 316 307 322 392 530 675 656 627
9 7 9 7 4 2 5 4 6 13 9 14 21 18 0 0 2 7 1 2 11 14 18 36 41 34 0 1 6 2 14 15 159 101 41 39 92 216 413 552 596 843 815 749
4 13 10 9 2 2 9 16 18 16 11 9 11 17 28 15 1 2 0 14 21 8 19 24 35 41 14 0 0 0 0 0 0 0 5 6 31 26 72 236 621 851 819 755
3 1 8 9 7 3 4 3 3 11 11 10 9 17 15 5 0 0 3 18 14 13 5 14 14 21 1 0 0 0 0 0 0 0 0 0 0 0 3 21 75 237 347 661
3 4 12 8 5 3 3 0 0 0 0 6 2 0 0 2 2 10 17 9 21 25 18 10 10 10 2 0 0 0 0 0 0 0 0 0 0 0 0 0 2 18 124 324
20 15 12 6 0 1 0 0 0 0 0 0 0 13 17 12 24 14 22 22 12 6 7 9 19 16 11 3 0 0 0 0 0 0 0 0 0 0 0 0 0 0 1 97
20 17 29 5 9 1 8 0 0 0 3 10 15 18 11 3 14 5 1 2 3 1 5 8 14 12 9 7 5 1 0 0 0 0 0 0 0 0 0 0 0 0 0 2
4 12 9 13 8 0 15 3 9 10 17 19 19 7 9 1 1 0 0 1 0 4 3 3 4 5 8 7 3 1 2 2 1 0 0 0 0 0 0 0 0 0 0 0
0 2 2 8 2 16 7 12 0 3 1 4 0 1 3 3 0 0 0 0 0 3 3 6 14 12 8 6 5 8 11 4 0 0 0 0 0 0 0 0 0 0 0 0
2 6 0 6 10 4 17 8 0 3 22 9 7 2 4 3 3 2 1 1 0 0 0 0 6 8 12 6 8 2 4 2 7 1 1 0 3 3 1 0 0 0 0 0
1 1 1 4 5 4 0 3 9 7 0 1 0 1 6 3 0 0 0 1 5 0 0 5 1 8 9 6 6 14 5 2 9 2 3 3 4 6 1 2 0 2 1 0
6 19 21 18 32 26 18 1 1 0 0 0 0 0 0 0 0 1 5 2 0 0 2 5 4 5 7 8 5 6 1 0 2 1 2 0 0 3 2 3 1 3 5 2
23 22 10 8 9 11 13 5 1 0 0 0 0 0 0 0 2 3 3 0 1 3 9 9 18 7 20 3 5 6 3 2 4 2 0 2 7 2 3 3 1 2 0 1
9 7 2 8 21 6 6 7 4 0 0 0 0 0 0 3 3 13 3 0 0 3 16 11 9 28 11 3 10 14 6 2 2 2 1 3 6 5 2 1 0 2 8 10
18 8 13 22 11 6 9 6 6 0 0 0 0 0 3 10 9 3 0 0 0 4 10 21 12 5 7 6 1 8 6 4 7 6 5 3 2 2 2 4 2 0 0 0
CIN
0 0 0 0 0 0 0 0 0 0 0 0 0 0 0 0 0 0 0 0 0 0 0 0 0 0 0 0 -178 -205 -160 -118 -100 -109 -112 -133 -154 -175 -175 -170 -191 -196 -207 -212
0 0 0 0 0 0 0 0 0 0 0 0 0 0 0 0 0 0 0 0 0 0 0 0 0 0 0 0 0 -261 -199 -159 -89 -77 -92 -83 -86 -90 -107 -132 -190 -210 -182 -158
0 0 0 0 0 0 0 0 0 0 0 0 0 0 0 0 0 0 0 0 0 0 0 0 0 0 0 0 0 0 -220 -211 -154 -85 -49 -58 -49 -35 -30 -84 -142 -185 -182 -139
0 0 0 0 0 0 0 0 0 0 0 0 0 0 0 0 0 0 0 0 0 0 0 0 0 0 0 0 0 0 -13 -226 -187 -116 -65 -33 -60 -48 -50 -57 -67 -99 -144 -133
0 0 0 0 0 0 0 0 0 0 0 0 0 0 0 0 0 0 0 0 0 0 0 0 0 0 0 0 0 0 0 0 -211 -152 -102 -26 -20 -32 -24 -34 -39 -86 -88 -115
0 0 0 0 0 0 0 0 0 0 0 0 0 0 0 0 0 0 0 0 0 0 0 0 0 0 0 0 0 0 0 0 -195 -198 -154 -87 -23 -30 -14 -2 -4 -20 -47 -48
0 0 0 0 0 0 0 0 0 0 0 0 0 0 0 0 0 0 0 0 0 0 0 0 0 0 0 0 0 0 0 0 -61 -179 -178 -136 -76 -7 -2 -3 -1 -12 -32 -33
0 0 0 0 0 0 0 0 0 0 0 -8 0 0 0 0 0 0 0 0 0 0 0 0 0 0 0 0 0 0 0 0 0 -26 -164 -165 -128 -37 -2 -2 -2 -2 -12 -29
-2 0 0 0 0 0 0 0 0 0 0 0 0 0 0 0 0 0 0 0 0 0 0 0 0 0 0 0 0 0 0 0 0 0 -183 -163 -109 -50 -1 -1 -9 -34 -45 -34
0 -1 0 0 0 0 0 0 -5 -2 -2 -6 -9 -7 -8 -2 -1 -3 -1 -1 0 0 0 0 0 0 0 0 0 0 0 0 -109 -142 -152 -127 -67 -46 -26 -39 -60 -90 -120 -135
0 -1 0 -4 0 0 0 -6 -6 -4 -5 -6 -3 -5 0 -8 -3 -1 -20 -1 0 0 0 0 0 0 0 0 0 0 0 -33 -45 -60 -54 -57 -44 -51 -86 -127 -130 -126 -115 -137
-6 -1 -2 -3 -8 0 0 0 -4 -7 -1 -4 -3 -2 -9 -5 0 0 0 0 -2 0 0 -14 -12 -2 -41 -34 -29 -22 -3 -26 -62 -72 -25 -26 -25 -32 -76 -92 -80 -73 -67 -77
-1 0 -1 -2 -5 -3 -3 -3 -3 -4 -2 -1 -1 -2 0 0 -2 -6 -2 -2 -2 -2 -3 -1 -1 -2 0 -23 -42 -58 -86 -124 -61 -63 -64 -91 -90 -47 -38 -39 -53 -47 -53 -26
-1 0 -1 -2 -3 0 -1 0 -2 -1 -1 -3 -2 -4 -2 -8 -5 -5 0 -1 -1 -2 -2 -3 -1 -1 -7 0 0 0 0 0 0 0 -116 -62 -95 -96 -103 -86 -67 -33 -25 -11
0 -1 -1 -3 -3 -4 -3 -2 -3 -4 -2 -1 -4 -3 -7 -7 -1 -1 -1 -2 -1 -1 -3 -3 -4 -1 -1 0 0 0 0 0 0 0 0 0 0 0 -89 -108 -105 -100 -74 -43
-2 0 0 -2 -2 -3 -4 0 0 0 0 -3 -4 0 0 -5 -1 -1 -1 -2 -1 -1 -2 -4 -2 -4 -2 0 0 0 0 0 0 0 0 0 0 0 0 0 -119 -80 -32 -62
0 0 -1 -2 -1 -4 0 0 -1 0 0 0 0 -3 -4 -4 -3 -1 -1 -1 -2 -3 -2 -4 -2 0 -1 -2 -1 0 0 0 0 0 0 0 0 0 0 0 0 0 -37 -48
0 -1 -1 -1 -4 -1 -3 0 0 0 -1 -2 -3 -3 -6 -4 -1 -1 -1 -3 -2 -3 -2 -3 -2 -3 -2 -3 -2 -2 0 -1 0 0 0 0 0 0 0 0 0 0 -18 -62
-2 -2 -1 0 -2 -1 -4 -1 -1 -1 -1 -2 -2 -3 0 -1 -1 0 0 -1 0 -2 -1 -1 -2 -1 -2 -3 -2 -3 -3 -2 -1 0 0 0 0 0 0 0 0 0 0 0
-1 -2 0 -1 0 -1 -2 -16 0 -1 -2 -1 0 -1 -2 -2 0 0 0 0 0 -1 -1 -1 -3 -2 -3 -4 -4 -3 -2 -3 0 0 0 0 0 0 0 0 0 0 0 0
0 0 0 -2 0 -2 -3 -26 0 -1 -1 0 -1 -2 -2 -2 -3 -3 -2 -3 0 0 0 -2 -2 -2 -2 -2 -2 -1 -2 -3 -2 -4 -4 -1 -3 -2 -2 0 0 0 0 0
0 0 0 -1 0 -1 0 -1 0 -2 -1 -1 0 -1 -1 -2 -1 0 0 -2 -2 0 0 -3 -2 -2 -1 -2 -1 0 -1 -2 0 -5 -2 -3 -2 -2 -4 -2 -3 -2 -2 -2
0 -1 0 -3 0 -1 -1 -1 -1 0 0 0 0 0 0 -1 0 -1 -2 -2 0 0 -2 -3 -1 -3 -2 -3 -1 0 -2 -2 -2 0 -1 -1 0 0 0 0 -1 -2 -2 -3
-1 0 -1 -2 -2 -1 0 -1 0 -2 0 0 0 0 0 -1 -1 -2 -4 0 -2 -1 0 -3 -1 -1 0 -2 -1 0 -1 -3 0 0 0 0 0 -1 -1 0 -1 0 -1 0
-2 -1 -2 -2 -4 -2 -1 -2 -2 0 0 0 0 0 -1 -2 -2 -2 -3 -1 -1 -1 0 0 0 0 0 -2 0 0 -1 0 0 0 -1 -2 0 0 0 0 0 0 0 -1
-1 -1 -2 0 -2 -1 -1 -2 -2 0 0 0 0 0 -1 -1 -1 -1 0 0 0 -1 0 0 -1 0 0 -1 -1 0 0 0 0 0 0 0 0 0 0 0 0 0 0 0
Wind_Speed
13 21 23 23 24 28 24 25 26 24 23 27 30 30 29 27 24 26 27 27 28 28 27 24 25 27 29 29 28 27 26 24 22 22 22 23 24 23 24 23 22 22 21 23
16 23 24 21 21 22 23 26 28 27 26 27 30 33 29 26 26 25 27 27 28 29 28 26 26 28 28 30 30 31 30 28 27 26 26 26 26 27 27 26 24 23 22 23
27 19 21 17 18 21 23 26 25 26 25 28 32 38 33 27 25 26 26 28 28 27 27 28 29 28 28 30 31 32 33 33 31 30 29 29 30 30 29 27 25 23 21 21
27 30 19 15 17 17 27 19 26 28 30 32 23 37 30 26 24 24 25 23 23 26 26 25 27 32 33 33 32 33 32 31 32 32 32 32 31 32 29 28 26 24 22 24
15 16 15 15 18 17 25 22 26 29 33 36 35 35 34 23 22 23 23 23 26 26 25 29 31 30 30 31 33 34 34 32 30 31 33 32 31 32 31 30 28 25 22 22
22 16 17 17 18 18 17 20 24 26 29 43 29 32 34 27 21 21 21 22 24 25 28 31 34 34 34 33 33 34 35 37 35 31 30 32 33 32 32 30 29 28 25 24
17 18 20 18 21 17 18 25 33 34 28 36 27 31 32 29 25 26 27 26 26 28 28 29 30 31 32 32 33 33 34 36 36 36 35 34 34 36 36 33 30 28 27 27
30 28 15 15 19 25 25 25 33 40 38 37 19 30 27 20 22 25 24 25 25 27 29 30 30 31 32 32 34 35 36 37 37 37 37 36 37 35 35 35 34 31 28 28
27 27 19 17 20 20 25 26 28 44 43 47 43 42 33 24 23 21 22 25 27 30 32 33 32 32 32 33 34 35 36 37 38 38 37 37 36 35 33 34 33 32 30 27
25 34 27 26 24 24 28 32 33 27 39 43 36 32 32 22 22 18 21 25 30 33 36 36 36 35 36 35 34 34 34 35 35 35 34 34 32 33 31 29 30 30 29 28
30 31 32 27 26 28 25 27 27 35 39 42 41 33 23 23 23 24 30 31 35 37 38 38 37 37 36 35 34 33 31 31 31 31 30 31 29 28 27 27 25 24 25 24
23 30 38 37 29 26 30 33 33 33 34 32 35 35 31 23 24 25 31 35 37 39 37 36 34 33 31 29 29 28 27 27 26 26 26 26 26 26 26 25 24 23 23 23
24 28 35 33 27 24 32 31 27 28 28 31 36 30 19 22 23 32 36 37 34 34 33 31 29 29 27 27 27 28 27 28 29 29 24 24 23 25 26 24 22 22 22 22
24 29 33 39 34 25 27 26 25 27 32 35 32 34 30 31 35 35 34 31 31 33 32 28 26 26 25 27 29 30 30 29 30 30 31 26 26 25 24 25 26 26 25 27
22 31 32 35 35 36 36 36 32 30 30 33 33 35 35 35 34 32 28 28 30 29 27 25 25 26 29 30 29 30 32 33 33 33 32 33 35 33 29 27 26 28 30 32
16 28 27 31 26 29 33 31 30 29 29 28 30 33 30 25 25 26 28 28 29 29 30 30 31 30 33 31 31 31 36 36 35 36 34 32 29 33 38 35 35 32 31 32
20 23 25 31 25 29 31 27 24 24 22 22 23 24 28 29 28 27 29 31 34 37 38 36 33 33 36 37 34 32 38 39 39 39 38 36 32 32 34 39 39 41 40 36
26 28 27 28 27 27 19 18 19 20 17 17 21 25 24 27 28 31 34 36 31 37 37 38 40 43 44 43 40 40 40 41 41 40 41 40 39 37 33 32 34 38 39 39
11 18 24 23 23 27 24 19 20 20 21 18 22 25 25 28 32 37 29 31 35 39 41 43 44 43 43 44 45 46 45 42 42 42 42 41 41 41 39 37 32 30 34 37
9 9 16 18 22 24 17 15 19 21 24 16 17 24 30 36 33 35 38 38 37 38 42 43 43 48 51 52 52 50 46 47 49 46 46 46 45 44 43 42 43 43 42 41
10 12 14 16 22 21 17 17 19 19 19 20 27 33 35 37 36 45 42 38 38 39 40 47 47 49 48 49 52 53 47 42 48 51 51 49 47 44 43 43 43 44 45 46
12 12 15 17 21 23 15 16 18 25 28 31 36 38 41 40 41 39 41 37 37 43 46 45 46 42 47 54 52 52 53 46 44 48 51 50 50 51 51 49 45 41 41 44
20 17 20 17 20 15 17 20 26 29 32 36 38 39 41 32 31 32 35 39 37 39 38 44 43 44 47 52 49 51 42 46 49 50 46 44 48 47 45 46 47 47 47 49
17 17 18 20 16 16 19 24 27 31 34 37 38 41 34 26 36 30 27 27 30 33 44 47 45 36 39 44 46 47 45 47 48 44 41 34 34 40 40 41 43 46 47 46
24 20 18 15 19 21 16 27 30 34 37 39 40 36 31 32 25 25 27 28 28 28 31 38 34 36 39 36 34 37 38 35 39 36 33 33 34 33 35 34 34 36 39 39
14 16 13 13 18 25 28 31 34 36 38 41 38 41 26 26 28 30 30 35 36 34 27 26 32 29 30 30 31 30 33 34 37 27 15 15 18 18 17 18 25 35 40 40
Wind_Direction
278 265 263 266 268 274 278 276 276 281 284 282 278 279 281 284 283 283 284 286 287 288 291 293 292 291 289 285 281 277 273 269 268 264 266 267 264 265 267 265 265 266 265 268
282 271 272 279 279 278 279 278 279 285 285 284 282 281 285 287 285 286 288 289 290 290 289 289 291 292 290 288 286 280 275 273 269 269 269 271 271 271 271 269 268 265 265 263
262 290 288 279 281 279 279 279 283 283 290 291 288 283 285 288 288 289 290 291 292 292 292 291 293 294 292 290 289 287 280 273 269 269 271 272 273 274 272 267 268 264 258 259
272 260 285 284 280 281 276 289 283 283 285 284 300 281 287 292 290 291 292 293 294 295 296 296 295 294 291 290 289 288 288 283 273 267 266 265 266 268 267 268 268 266 259 262
304 297 284 281 283 286 283 294 288 285 281 279 280 281 287 293 290 294 294 294 296 296 297 298 298 298 296 294 290 288 287 287 283 273 266 265 263 266 269 270 268 262 263 262
289 303 297 295 292 289 296 296 294 293 291 272 289 284 287 291 294 299 302 302 302 301 301 299 298 296 295 295 294 291 288 284 283 280 272 265 262 262 266 265 264 263 261 265
293 288 288 292 289 289 290 292 286 283 284 285 297 287 291 297 297 299 299 302 304 304 305 307 307 305 303 300 299 297 293 289 285 281 277 272 267 264 263 262 262 263 262 263
289 288 288 287 281 286 285 283 281 283 284 287 305 291 301 309 309 304 308 307 307 308 308 308 308 309 307 305 303 300 298 293 289 285 280 276 271 268 265 260 260 260 261 265
293 288 302 298 296 293 289 283 291 282 284 282 286 290 295 299 304 305 308 309 310 311 310 307 307 308 308 308 307 305 301 299 294 288 284 278 272 267 265 262 259 258 262 264
294 287 290 294 295 291 287 290 287 289 286 284 291 294 297 301 305 310 311 315 314 312 308 307 306 306 305 304 306 310 307 305 302 296 289 281 275 269 264 262 259 256 258 260
293 289 287 290 287 286 287 289 284 287 284 287 289 293 315 309 313 311 311 313 314 312 310 309 310 309 308 307 308 309 313 312 310 307 295 284 276 269 266 262 258 256 257 255
298 294 283 282 290 291 287 286 284 284 287 288 291 290 304 312 312 315 314 314 313 312 311 310 312 315 316 317 317 319 314 316 320 315 302 287 280 277 270 266 261 259 258 263
299 290 287 288 290 288 281 286 284 286 291 284 287 295 320 316 312 314 314 314 317 319 318 317 317 317 319 319 318 316 315 311 307 304 304 302 294 283 275 271 266 262 260 267
296 285 282 280 286 299 291 294 291 290 288 291 290 296 300 306 312 314 316 320 321 323 322 322 322 324 324 316 315 311 313 312 306 301 294 291 290 290 286 277 271 268 267 262
295 286 287 287 288 287 288 287 288 285 288 288 296 298 303 308 311 316 321 323 324 327 328 328 324 321 319 319 318 315 310 301 298 298 295 288 279 281 282 279 281 277 271 268
290 292 294 291 298 294 290 291 290 289 291 292 296 300 309 318 321 321 322 324 322 324 323 321 314 315 311 317 320 316 302 298 299 289 292 294 297 278 273 277 276 276 274 272
299 296 301 291 305 300 293 297 296 295 297 300 301 311 317 315 319 321 321 322 319 314 311 311 312 311 308 311 314 314 300 296 293 291 287 288 290 289 280 269 274 271 272 272
291 288 291 296 301 296 312 324 321 316 312 314 311 315 321 322 322 317 314 313 320 316 314 311 306 303 301 302 304 304 299 291 290 289 285 283 281 282 283 280 277 269 266 266
282 288 290 294 294 296 311 320 318 319 315 322 320 321 326 326 320 310 323 323 319 316 313 310 307 305 303 301 300 297 293 292 290 288 287 283 280 280 279 278 279 279 276 272
320 306 290 301 301 304 331 338 332 328 315 339 338 330 325 316 320 317 320 320 320 319 317 315 309 303 299 296 293 292 290 287 285 287 285 282 279 278 277 276 275 273 273 272
317 310 298 300 304 312 327 332 336 326 331 338 327 319 315 313 316 310 318 321 321 320 323 317 309 302 298 300 294 286 289 288 287 284 282 280 279 278 278 277 276 274 272 271
317 316 310 310 308 306 339 340 328 328 326 318 304 302 303 313 316 323 323 323 322 319 319 318 311 310 303 295 289 282 270 289 291 285 281 279 277 276 275 275 274 272 272 271
306 312 311 317 319 341 340 335 321 310 307 297 299 310 313 328 328 326 324 324 322 323 321 318 314 315 304 290 283 280 293 294 281 282 286 285 281 279 276 274 272 271 271 271
325 329 319 326 342 342 338 322 304 289 289 300 310 313 330 329 329 325 319 314 316 321 322 316 306 269 270 281 276 282 291 270 273 285 290 292 288 283 280 277 275 273 271 269
306 323 329 332 333 334 343 292 292 294 300 301 314 328 333 332 324 315 302 301 301 292 281 279 267 266 267 265 255 255 258 255 278 295 297 294 292 289 286 282 279 275 272 270
353 343 346 349 337 299 276 287 295 298 299 300 323 305 334 331 289 288 289 288 290 287 281 273 272 264 261 258 258 251 255 252 256 249 282 290 293 291 277 273 281 279 273 272